Manston, United Kingdom

7:15 PM GMT on February 22, 2017 (GMT +0000)
Manston

Weather History for EGMH - January, 2013

Change the Weather History Date:

Friday, January 25, 2013

  Actual Average Record
Temperature  
Mean Temperature 30 °F -  
Max Temperature 33 °F 44 °F - ()
Min Temperature 28 °F 35 °F - ()
Degree Days  
Heating Degree Days 34    
Moisture  
Dew Point 27 °F    
Average Humidity 84    
Maximum Humidity 93    
Minimum Humidity 70    
Precipitation  
Precipitation 0.00 in 0.05 in - ()
Sea Level Pressure  
Sea Level Pressure 30.00 in    
Wind  
Wind Speed 7 mph ()    
Max Wind Speed 20 mph    
Max Gust Speed -    
Visibility 5.1 miles    
Events Rain    
T = Trace of Precipitation, MM = Missing Value Source: Averaged Metar Reports

Daily Weather History Graph

Daily Weather History Graph

Search for Another Location

Airport or City:

Trip Planner

Search our weather history database for the weather conditions in past years. The results will help you decide how hot, cold, wet, or windy it might be!

Date:

Astronomy

Jan. 25, 2013 Rise Set
Actual Time 7:42 AM GMT 4:32 PM GMT
Civil Twilight 7:05 AM GMT 5:09 PM GMT
Nautical Twilight 6:24 AM GMT 5:50 PM GMT
Astronomical Twilight 5:45 AM GMT 6:29 PM GMT
Moon 3:14 PM GMT (1/25) 6:13 AM GMT (1/25)
Length of Visible Light 10h 04m
Length of Day
8h 50m
Waxing Gibbous, 97% of the Moon is Illuminated
Jan 25
Waxing Gibbous
Jan 27
Full
Feb 3
Last Quarter
Feb 10
New
Feb 17
First Quarter

Hourly Weather History & Observations

Time (GMT) Temp. Windchill Dew Point Humidity Pressure Visibility Wind Dir Wind Speed Gust Speed Precip Events Conditions
2:50 AM 32 °F - 29 °F 86% 30.12 in 6 mi South 6.9 mph - -   Mostly Cloudy
5:50 AM 32 °F - 29 °F 83% 30.11 in 7 mi South 3.5 mph - -  
7:20 AM 32.0 °F - 28.4 °F 87% 30.09 in 6.2 mi WSW 2.3 mph - N/A   Mostly Cloudy
7:50 AM 32.0 °F - 28.4 °F 87% 30.09 in 6.2 mi SW 2.3 mph - N/A   Mostly Cloudy
8:20 AM 33.8 °F - 28.4 °F 81% 30.09 in 6.2 mi South 2.3 mph - N/A   Mostly Cloudy
8:50 AM 33 °F - 28 °F 73% 30.11 in 14 mi SSE 1.2 mph - -   Overcast
8:50 AM 32.0 °F - 28.4 °F 87% 30.09 in 6.2 mi ESE 1.2 mph - N/A   Mostly Cloudy
9:20 AM 33.8 °F 28.6 °F 28.4 °F 81% 30.09 in 3.7 mi South 5.8 mph - N/A   Mostly Cloudy
9:50 AM 32.0 °F 22.5 °F 30.2 °F 93% 30.09 in 1.6 mi South 12.7 mph - N/A   Mostly Cloudy
10:20 AM 32.0 °F 24.2 °F 30.2 °F 93% 30.09 in 2.2 mi South 9.2 mph - N/A   Mostly Cloudy
10:50 AM 30.2 °F 23.4 °F 28.4 °F 93% 30.06 in 3.1 mi South 6.9 mph - N/A   Mostly Cloudy
11:20 AM 32.0 °F 24.2 °F 28.4 °F 87% 30.06 in 6.2 mi South 9.2 mph - N/A   Scattered Clouds
11:50 AM 32 °F - 26 °F 70% 30.06 in 6 mi South 11.5 mph - - Rain Drizzle
11:50 AM 32.0 °F 24.2 °F 26.6 °F 80% 30.04 in 5.6 mi South 9.2 mph - N/A   Mostly Cloudy
12:20 PM 32.0 °F 24.2 °F 26.6 °F 80% 30.04 in 4.3 mi South 9.2 mph - N/A   Mostly Cloudy
12:50 PM 30.2 °F 20.8 °F 24.8 °F 80% 30.04 in 5.0 mi SSE 11.5 mph - N/A   Scattered Clouds
1:20 PM 30.2 °F 21.9 °F 24.8 °F 80% 30.01 in 5.6 mi South 9.2 mph - N/A   Partly Cloudy
1:50 PM 30.2 °F 22.6 °F 24.8 °F 80% 30.01 in 5.0 mi South 8.1 mph - N/A   Partly Cloudy
2:20 PM 30.2 °F 21.3 °F 24.8 °F 80% 29.98 in 5.0 mi South 10.4 mph - N/A   Mostly Cloudy
2:50 PM 29 °F - 24 °F 75% 29.99 in 5 mi South 12.7 mph - -   Light Haze
2:50 PM 30.2 °F 20.8 °F 24.8 °F 80% 29.98 in 5.6 mi South 11.5 mph - N/A   Scattered Clouds
3:20 PM 28.4 °F 18.5 °F 24.8 °F 86% 29.95 in 6.2 mi SSE 11.5 mph - N/A   Mostly Cloudy
3:50 PM 30.2 °F 20.8 °F 26.6 °F 86% 29.92 in 6.2 mi SSE 11.5 mph - N/A   Mostly Cloudy
4:20 PM 28.4 °F 18.0 °F 24.8 °F 86% 29.92 in 5.0 mi SSE 12.7 mph - N/A   Mostly Cloudy
4:50 PM 30.2 °F 19.3 °F 26.6 °F 86% 29.89 in 4.3 mi SSE 15.0 mph - N/A   Scattered Clouds
5:20 PM 28.4 °F 17.5 °F 26.6 °F 93% 29.89 in 4.3 mi SSE 13.8 mph - N/A   Mostly Cloudy
5:50 PM 28 °F - 25 °F 83% 29.88 in 3 mi SSE 17.3 mph - -   Light Haze
5:50 PM 28.4 °F 17.0 °F 24.8 °F 86% 29.86 in 4.3 mi SSE 15.0 mph - N/A   Mostly Cloudy
8:50 PM 31 °F - 29 °F 92% 29.77 in 1 mi SSE 19.6 mph - -   Light Haze
11:50 PM 32 °F - 28 °F 81% 29.70 in 3 mi South 19.6 mph - -   Light Haze